contact:dominique.lefevre@mio.osupytheas.fr, maurice.libes@osupytheas.fr, didier.mallarino@osupytheas.fr
Project:EMSO http://www.emso-fr.org/EMSO-France
Depth: 2436.0 m
Title:EMSO Ligure Ouest : Data MII capteur CSTAR
DateTime,Latitude,Longitude,Instrument_Serial,Reference_Counts,Signal_Counts,Corrected_Signal_raw_counts,Calculated_Beam_c_inverse_meters,Internal_thermistor_counts
DateTime,Latitude,Longitude,Instrument_Serial,Reference_Counts,Signal_Counts,Corrected_Signal_raw_counts,Calculated_Beam_c_inverse_meters,Internal_thermistor_counts
2019-10-05T00:00:38,42.805,6.029,CST-1368DR,7684,10762,15350,0.069,551
2019-10-05T00:03:39,42.805,6.029,CST-1368DR,7684,10763,15352,0.068,551
2019-10-05T00:06:41,42.805,6.029,CST-1368DR,7684,10762,15350,0.069,551
2019-10-05T00:09:43,42.805,6.029,CST-1368DR,7684,10761,15350,0.069,551
2019-10-05T00:12:44,42.805,6.029,CST-1368DR,7684,10762,15351,0.068,551
2019-10-05T00:15:46,42.805,6.029,CST-1368DR,7684,10761,15349,0.069,551
2019-10-05T00:18:48,42.805,6.029,CST-1368DR,7684,10762,15350,0.069,551
2019-10-05T00:21:49,42.805,6.029,CST-1368DR,7684,10761,15349,0.069,551
2019-10-05T00:24:51,42.805,6.029,CST-1368DR,7684,10761,15349,0.069,551
2019-10-05T00:27:53,42.805,6.029,CST-1368DR,7684,10762,15351,0.068,551
2019-10-05T00:30:54,42.805,6.029,CST-1368DR,7684,10760,15347,0.070,551
2019-10-05T00:33:56,42.805,6.029,CST-1368DR,7684,10761,15349,0.069,551
2019-10-05T00:36:58,42.805,6.029,CST-1368DR,7684,10760,15348,0.069,551
2019-10-05T00:39:59,42.805,6.029,CST-1368DR,7684,10762,15350,0.069,551
2019-10-05T00:43:01,42.805,6.029,CST-1368DR,7684,10762,15350,0.069,551
2019-10-05T00:46:03,42.805,6.029,CST-1368DR,7684,10761,15349,0.069,551
2019-10-05T00:49:04,42.805,6.029,CST-1368DR,7684,10761,15349,0.069,551
2019-10-05T00:52:06,42.805,6.029,CST-1368DR,7684,10762,15350,0.069,550
2019-10-05T00:55:08,42.805,6.029,CST-1368DR,7684,10761,15349,0.069,551
2019-10-05T00:58:09,42.805,6.029,CST-1368DR,7684,10761,15349,0.069,551
2019-10-05T01:01:11,42.805,6.029,CST-1368DR,7684,10761,15349,0.069,551
2019-10-05T01:04:13,42.805,6.029,CST-1368DR,7684,10760,15348,0.069,551
2019-10-05T01:07:14,42.805,6.029,CST-1368DR,7684,10760,15348,0.069,551
2019-10-05T01:10:16,42.805,6.029,CST-1368DR,7684,10761,15349,0.069,551
2019-10-05T01:13:18,42.805,6.029,CST-1368DR,7684,10761,15350,0.069,551
2019-10-05T01:16:19,42.805,6.029,CST-1368DR,7684,10760,15348,0.069,551
2019-10-05T01:19:21,42.805,6.029,CST-1368DR,7684,10761,15350,0.069,551
2019-10-05T01:22:23,42.805,6.029,CST-1368DR,7684,10762,15350,0.069,551
2019-10-05T01:25:24,42.805,6.029,CST-1368DR,7684,10761,15349,0.069,551
2019-10-05T01:28:26,42.805,6.029,CST-1368DR,7684,10762,15350,0.069,551
2019-10-05T01:31:28,42.805,6.029,CST-1368DR,7684,10761,15349,0.069,551
2019-10-05T01:34:29,42.805,6.029,CST-1368DR,7684,10760,15347,0.070,551
2019-10-05T01:37:31,42.805,6.029,CST-1368DR,7684,10761,15350,0.069,551
2019-10-05T01:40:33,42.805,6.029,CST-1368DR,7684,10760,15348,0.069,551
2019-10-05T01:43:35,42.805,6.029,CST-1368DR,7684,10761,15349,0.069,551
2019-10-05T01:46:36,42.805,6.029,CST-1368DR,7683,10683,15239,0.098,551
2019-10-05T01:49:38,42.805,6.029,CST-1368DR,7684,10761,15349,0.069,551
2019-10-05T01:52:40,42.805,6.029,CST-1368DR,7683,10618,15147,0.122,551
2019-10-05T01:55:41,42.805,6.029,CST-1368DR,7683,10760,15350,0.069,551
2019-10-05T01:58:43,42.805,6.029,CST-1368DR,7684,10761,15349,0.069,551
2019-10-05T02:01:45,42.805,6.029,CST-1368DR,7684,10760,15348,0.069,551
2019-10-05T02:04:46,42.805,6.029,CST-1368DR,7683,10760,15350,0.069,551
2019-10-05T02:07:48,42.805,6.029,CST-1368DR,7684,10761,15350,0.069,551
2019-10-05T02:10:49,42.805,6.029,CST-1368DR,7684,10762,15350,0.069,551
2019-10-05T02:13:51,42.805,6.029,CST-1368DR,7683,10761,15352,0.068,551
2019-10-05T02:16:53,42.805,6.029,CST-1368DR,7684,10761,15349,0.069,551
2019-10-05T02:19:55,42.805,6.029,CST-1368DR,7684,10762,15350,0.069,551
2019-10-05T02:22:56,42.805,6.029,CST-1368DR,7684,10761,15349,0.069,551
2019-10-05T02:25:58,42.805,6.029,CST-1368DR,7683,10759,15349,0.069,551
2019-10-05T02:28:59,42.805,6.029,CST-1368DR,7683,10761,15351,0.068,551
2019-10-05T02:32:01,42.805,6.029,CST-1368DR,7683,10761,15351,0.068,551
2019-10-05T02:35:03,42.805,6.029,CST-1368DR,7683,10762,15352,0.068,550
2019-10-05T02:38:04,42.805,6.029,CST-1368DR,7683,10758,15347,0.070,551
2019-10-05T02:41:06,42.805,6.029,CST-1368DR,7683,10760,15350,0.069,551
2019-10-05T02:44:08,42.805,6.029,CST-1368DR,7683,10759,15348,0.069,551
2019-10-05T02:47:09,42.805,6.029,CST-1368DR,7683,10761,15351,0.068,551
2019-10-05T02:50:11,42.805,6.029,CST-1368DR,7683,10760,15350,0.069,550
2019-10-05T02:53:13,42.805,6.029,CST-1368DR,7683,10754,15342,0.071,551
2019-10-05T02:56:14,42.805,6.029,CST-1368DR,7683,10760,15350,0.069,551
2019-10-05T02:59:16,42.805,6.029,CST-1368DR,7683,10758,15347,0.070,551
2019-10-05T03:02:18,42.805,6.029,CST-1368DR,7683,10760,15349,0.069,551
2019-10-05T03:05:19,42.805,6.029,CST-1368DR,7683,10761,15351,0.068,551
2019-10-05T03:08:21,42.805,6.029,CST-1368DR,7683,10759,15349,0.069,551
2019-10-05T03:11:23,42.805,6.029,CST-1368DR,7683,10758,15347,0.070,551
2019-10-05T03:14:24,42.805,6.029,CST-1368DR,7683,10760,15350,0.069,551
2019-10-05T03:17:26,42.805,6.029,CST-1368DR,7683,10761,15351,0.068,551
2019-10-05T03:20:28,42.805,6.029,CST-1368DR,7683,10760,15350,0.069,551
2019-10-05T03:23:29,42.805,6.029,CST-1368DR,7683,10759,15348,0.069,551
2019-10-05T03:26:31,42.805,6.029,CST-1368DR,7683,10760,15349,0.069,551
2019-10-05T03:29:32,42.805,6.029,CST-1368DR,7683,10761,15351,0.068,551
2019-10-05T03:32:34,42.805,6.029,CST-1368DR,7683,10759,15349,0.069,551
2019-10-05T03:35:36,42.805,6.029,CST-1368DR,7683,10760,15350,0.069,551
2019-10-05T03:38:37,42.805,6.029,CST-1368DR,7683,10759,15348,0.069,551
2019-10-05T03:41:39,42.805,6.029,CST-1368DR,7683,10761,15351,0.068,551
2019-10-05T03:44:41,42.805,6.029,CST-1368DR,7683,10760,15349,0.069,551
2019-10-05T03:47:42,42.805,6.029,CST-1368DR,7683,10761,15351,0.068,551
2019-10-05T03:50:44,42.805,6.029,CST-1368DR,7683,10760,15349,0.069,551
2019-10-05T03:53:46,42.805,6.029,CST-1368DR,7683,10758,15347,0.070,551
2019-10-05T03:56:47,42.805,6.029,CST-1368DR,7683,10760,15349,0.069,551
2019-10-05T03:59:49,42.805,6.029,CST-1368DR,7683,10760,15349,0.069,551
2019-10-05T04:02:51,42.805,6.029,CST-1368DR,7683,10758,15347,0.070,551
2019-10-05T04:05:52,42.805,6.029,CST-1368DR,7683,10759,15349,0.069,551
2019-10-05T04:08:54,42.805,6.029,CST-1368DR,7683,10760,15350,0.069,551
2019-10-05T04:11:56,42.805,6.029,CST-1368DR,7683,10761,15351,0.068,551
2019-10-05T04:14:57,42.805,6.029,CST-1368DR,7683,10758,15347,0.070,551
2019-10-05T04:17:59,42.805,6.029,CST-1368DR,7683,10759,15348,0.069,551
2019-10-05T04:21:00,42.805,6.029,CST-1368DR,7683,10758,15347,0.070,551
2019-10-05T04:24:02,42.805,6.029,CST-1368DR,7683,10758,15347,0.070,551
2019-10-05T04:27:04,42.805,6.029,CST-1368DR,7683,10759,15348,0.069,551
2019-10-05T04:30:05,42.805,6.029,CST-1368DR,7683,10760,15350,0.069,551
2019-10-05T04:33:07,42.805,6.029,CST-1368DR,7683,10760,15349,0.069,551
2019-10-05T04:36:09,42.805,6.029,CST-1368DR,7683,10760,15349,0.069,551
2019-10-05T04:39:10,42.805,6.029,CST-1368DR,7683,10759,15349,0.069,551
2019-10-05T04:42:12,42.805,6.029,CST-1368DR,7683,10760,15350,0.069,551
2019-10-05T04:45:14,42.805,6.029,CST-1368DR,7683,10760,15350,0.069,551
2019-10-05T04:48:15,42.805,6.029,CST-1368DR,7683,10760,15349,0.069,551
2019-10-05T04:51:17,42.805,6.029,CST-1368DR,7683,10759,15348,0.069,551
2019-10-05T04:54:19,42.805,6.029,CST-1368DR,7682,10756,15346,0.070,551
2019-10-05T04:57:20,42.805,6.029,CST-1368DR,7682,10757,15347,0.070,551
2019-10-05T05:00:22,42.805,6.029,CST-1368DR,7682,10761,15352,0.068,551
2019-10-05T05:03:23,42.805,6.029,CST-1368DR,7683,10759,15349,0.069,551
2019-10-05T05:06:25,42.805,6.029,CST-1368DR,7683,10758,15347,0.070,551
2019-10-05T05:09:27,42.805,6.029,CST-1368DR,7682,10758,15348,0.069,551
2019-10-05T05:12:28,42.805,6.029,CST-1368DR,7682,10757,15347,0.070,551
2019-10-05T05:15:30,42.805,6.029,CST-1368DR,7682,10761,15352,0.068,551
2019-10-05T05:18:32,42.805,6.029,CST-1368DR,7682,10759,15350,0.069,551
2019-10-05T05:21:33,42.805,6.029,CST-1368DR,7680,10453,14918,0.183,551
2019-10-05T05:24:35,42.805,6.029,CST-1368DR,7682,10758,15349,0.069,551
2019-10-05T05:27:37,42.805,6.029,CST-1368DR,7682,10759,15350,0.069,550
2019-10-05T05:30:38,42.805,6.029,CST-1368DR,7682,10760,15351,0.068,551
2019-10-05T05:33:40,42.805,6.029,CST-1368DR,7682,10757,15348,0.069,551
2019-10-05T05:36:42,42.805,6.029,CST-1368DR,7682,10759,15350,0.069,551
2019-10-05T05:39:43,42.805,6.029,CST-1368DR,7682,10759,15351,0.068,551
2019-10-05T05:42:45,42.805,6.029,CST-1368DR,7682,10760,15351,0.068,551
2019-10-05T05:45:47,42.805,6.029,CST-1368DR,7682,10759,15351,0.068,551
2019-10-05T05:48:48,42.805,6.029,CST-1368DR,7682,10760,15351,0.068,551
2019-10-05T05:51:50,42.805,6.029,CST-1368DR,7682,10759,15350,0.069,551
2019-10-05T05:54:52,42.805,6.029,CST-1368DR,7682,10760,15351,0.068,551
2019-10-05T05:57:53,42.805,6.029,CST-1368DR,7682,10759,15350,0.069,551
2019-10-05T06:00:55,42.805,6.029,CST-1368DR,7682,10760,15351,0.068,551
2019-10-05T06:03:56,42.805,6.029,CST-1368DR,7682,10759,15350,0.069,551
2019-10-05T06:06:58,42.805,6.029,CST-1368DR,7682,10759,15351,0.068,551
2019-10-05T06:10:00,42.805,6.029,CST-1368DR,7682,10672,15226,0.101,550
2019-10-05T06:13:01,42.805,6.029,CST-1368DR,7682,10758,15349,0.069,551
2019-10-05T06:16:03,42.805,6.029,CST-1368DR,7682,10754,15343,0.071,551
2019-10-05T06:19:05,42.805,6.029,CST-1368DR,7682,10758,15349,0.069,551
2019-10-05T06:22:07,42.805,6.029,CST-1368DR,7682,10759,15350,0.069,551
2019-10-05T06:25:08,42.805,6.029,CST-1368DR,7682,10758,15349,0.069,551
2019-10-05T06:28:10,42.805,6.029,CST-1368DR,7682,10759,15351,0.068,551
2019-10-05T06:31:12,42.805,6.029,CST-1368DR,7682,10759,15350,0.069,550
2019-10-05T06:34:13,42.805,6.029,CST-1368DR,7682,10760,15351,0.068,551
2019-10-05T06:37:15,42.805,6.029,CST-1368DR,7682,10758,15349,0.069,551
2019-10-05T06:40:17,42.805,6.029,CST-1368DR,7682,10757,15347,0.070,550
2019-10-05T06:43:18,42.805,6.029,CST-1368DR,7682,10759,15351,0.068,551
2019-10-05T06:46:20,42.805,6.029,CST-1368DR,7682,10758,15349,0.069,551
2019-10-05T06:49:22,42.805,6.029,CST-1368DR,7682,10757,15347,0.070,551
2019-10-05T06:52:23,42.805,6.029,CST-1368DR,7682,10760,15351,0.068,551
2019-10-05T06:55:25,42.805,6.029,CST-1368DR,7682,10759,15350,0.069,551
2019-10-05T06:58:27,42.805,6.029,CST-1368DR,7682,10759,15350,0.069,551
2019-10-05T07:01:28,42.805,6.029,CST-1368DR,7682,10758,15348,0.069,551
2019-10-05T07:04:30,42.805,6.029,CST-1368DR,7682,10760,15352,0.068,551
2019-10-05T07:07:32,42.805,6.029,CST-1368DR,7682,10757,15348,0.069,551
2019-10-05T07:10:33,42.805,6.029,CST-1368DR,7682,10758,15349,0.069,551
2019-10-05T07:13:35,42.805,6.029,CST-1368DR,7682,10759,15350,0.069,551
2019-10-05T07:16:36,42.805,6.029,CST-1368DR,7682,10756,15346,0.070,551
2019-10-05T07:19:38,42.805,6.029,CST-1368DR,7682,10757,15348,0.069,551
2019-10-05T07:22:40,42.805,6.029,CST-1368DR,7682,10758,15348,0.069,551
2019-10-05T07:25:41,42.805,6.029,CST-1368DR,7682,10756,15346,0.070,551
2019-10-05T07:28:43,42.805,6.029,CST-1368DR,7682,10757,15347,0.070,551
2019-10-05T07:31:45,42.805,6.029,CST-1368DR,7682,10758,15349,0.069,551
2019-10-05T07:34:46,42.805,6.029,CST-1368DR,7682,10759,15350,0.069,551
2019-10-05T07:37:48,42.805,6.029,CST-1368DR,7682,10757,15347,0.070,551
2019-10-05T07:40:50,42.805,6.029,CST-1368DR,7682,10758,15348,0.069,551
2019-10-05T07:43:51,42.805,6.029,CST-1368DR,7682,10756,15346,0.070,551
2019-10-05T07:46:53,42.805,6.029,CST-1368DR,7681,10759,15351,0.068,551
2019-10-05T07:49:55,42.805,6.029,CST-1368DR,7682,10758,15349,0.069,551
2019-10-05T07:52:56,42.805,6.029,CST-1368DR,7682,10759,15350,0.069,551
2019-10-05T07:55:58,42.805,6.029,CST-1368DR,7682,10756,15346,0.070,551
2019-10-05T07:59:00,42.805,6.029,CST-1368DR,7682,10759,15350,0.069,550
2019-10-05T08:02:01,42.805,6.029,CST-1368DR,7682,10757,15347,0.070,551
2019-10-05T08:05:03,42.805,6.029,CST-1368DR,7682,10756,15346,0.070,551
2019-10-05T08:08:05,42.805,6.029,CST-1368DR,7682,10759,15351,0.068,551
2019-10-05T08:11:06,42.805,6.029,CST-1368DR,7681,10758,15351,0.068,551
2019-10-05T08:14:08,42.805,6.029,CST-1368DR,7681,10757,15349,0.069,551
2019-10-05T08:17:10,42.805,6.029,CST-1368DR,7681,10759,15352,0.068,551
2019-10-05T08:20:11,42.805,6.029,CST-1368DR,7681,10756,15348,0.069,551
2019-10-05T08:23:13,42.805,6.029,CST-1368DR,7681,10758,15351,0.068,551
2019-10-05T08:26:15,42.805,6.029,CST-1368DR,7681,10758,15350,0.069,551
2019-10-05T08:29:16,42.805,6.029,CST-1368DR,7681,10758,15350,0.069,551
2019-10-05T08:32:18,42.805,6.029,CST-1368DR,7681,10755,15347,0.070,551
2019-10-05T08:35:20,42.805,6.029,CST-1368DR,7681,10728,15308,0.080,551
2019-10-05T08:38:21,42.805,6.029,CST-1368DR,7681,10759,15351,0.068,550
2019-10-05T08:41:23,42.805,6.029,CST-1368DR,7681,10759,15351,0.068,551
2019-10-05T08:44:25,42.805,6.029,CST-1368DR,7681,10759,15352,0.068,551
2019-10-05T08:47:26,42.805,6.029,CST-1368DR,7681,10758,15351,0.068,551
2019-10-05T08:50:28,42.805,6.029,CST-1368DR,7681,10758,15350,0.069,551
2019-10-05T08:53:30,42.805,6.029,CST-1368DR,7681,10758,15351,0.068,551
2019-10-05T08:56:31,42.805,6.029,CST-1368DR,7681,10758,15350,0.069,551
2019-10-05T08:59:33,42.805,6.029,CST-1368DR,7681,10758,15351,0.068,551
2019-10-05T09:02:34,42.805,6.029,CST-1368DR,7681,10757,15349,0.069,551
2019-10-05T09:05:36,42.805,6.029,CST-1368DR,7681,10757,15349,0.069,551
2019-10-05T09:08:38,42.805,6.029,CST-1368DR,7681,10757,15349,0.069,550
2019-10-05T09:11:39,42.805,6.029,CST-1368DR,7681,10758,15350,0.069,551
2019-10-05T09:14:41,42.805,6.029,CST-1368DR,7681,10758,15351,0.068,551
2019-10-05T09:17:43,42.805,6.029,CST-1368DR,7681,10757,15350,0.069,550
2019-10-05T09:20:44,42.805,6.029,CST-1368DR,7681,10757,15349,0.069,551
2019-10-05T09:23:46,42.805,6.029,CST-1368DR,7681,10758,15351,0.068,550
2019-10-05T09:26:48,42.805,6.029,CST-1368DR,7681,10757,15350,0.069,551
2019-10-05T09:29:49,42.805,6.029,CST-1368DR,7681,10755,15347,0.070,551
2019-10-05T09:32:51,42.805,6.029,CST-1368DR,7681,10757,15349,0.069,551
2019-10-05T09:35:53,42.805,6.029,CST-1368DR,7681,10756,15347,0.070,551
2019-10-05T09:38:54,42.805,6.029,CST-1368DR,7681,10755,15346,0.070,551
2019-10-05T09:41:56,42.805,6.029,CST-1368DR,7681,10756,15348,0.069,551
2019-10-05T09:44:58,42.805,6.029,CST-1368DR,7681,10756,15348,0.069,550
2019-10-05T09:47:59,42.805,6.029,CST-1368DR,7681,10757,15349,0.069,551
2019-10-05T09:51:01,42.805,6.029,CST-1368DR,7681,10757,15349,0.069,551
2019-10-05T09:54:03,42.805,6.029,CST-1368DR,7681,10757,15349,0.069,551
2019-10-05T09:57:04,42.805,6.029,CST-1368DR,7681,10756,15348,0.069,551
2019-10-05T10:00:06,42.805,6.029,CST-1368DR,7681,10758,15350,0.069,551
2019-10-05T10:03:07,42.805,6.029,CST-1368DR,7681,10757,15349,0.069,551
2019-10-05T10:06:09,42.805,6.029,CST-1368DR,7681,10758,15350,0.069,551
2019-10-05T10:09:11,42.805,6.029,CST-1368DR,7681,10756,15348,0.069,551
2019-10-05T10:12:12,42.805,6.029,CST-1368DR,7681,10752,15342,0.071,551
2019-10-05T10:15:14,42.805,6.029,CST-1368DR,7681,10756,15348,0.069,550
2019-10-05T10:18:16,42.805,6.029,CST-1368DR,7681,10756,15348,0.069,551
2019-10-05T10:21:17,42.805,6.029,CST-1368DR,7681,10758,15350,0.069,551
2019-10-05T10:24:19,42.805,6.029,CST-1368DR,7680,10731,15313,0.078,551
2019-10-05T10:27:21,42.805,6.029,CST-1368DR,7681,10757,15349,0.069,551
2019-10-05T10:30:22,42.805,6.029,CST-1368DR,7681,10756,15348,0.069,551
2019-10-05T10:33:24,42.805,6.029,CST-1368DR,7681,10756,15348,0.069,551
2019-10-05T10:36:26,42.805,6.029,CST-1368DR,7681,10754,15345,0.070,551
2019-10-05T10:39:27,42.805,6.029,CST-1368DR,7681,10751,15341,0.071,551
2019-10-05T10:42:29,42.805,6.029,CST-1368DR,7681,10756,15348,0.069,551
2019-10-05T10:45:31,42.805,6.029,CST-1368DR,7681,10757,15349,0.069,551
2019-10-05T10:48:32,42.805,6.029,CST-1368DR,7681,10757,15349,0.069,550
2019-10-05T10:51:34,42.805,6.029,CST-1368DR,7681,10757,15349,0.069,551
2019-10-05T10:54:36,42.805,6.029,CST-1368DR,7681,10756,15348,0.069,551
2019-10-05T10:57:37,42.805,6.029,CST-1368DR,7681,10757,15350,0.069,551
2019-10-05T11:00:39,42.805,6.029,CST-1368DR,7681,10756,15348,0.069,551
2019-10-05T11:03:41,42.805,6.029,CST-1368DR,7680,10757,15350,0.069,551
2019-10-05T11:06:42,42.805,6.029,CST-1368DR,7680,10757,15351,0.068,551
2019-10-05T11:09:44,42.805,6.029,CST-1368DR,7680,10756,15350,0.069,551
2019-10-05T11:12:46,42.805,6.029,CST-1368DR,7680,10755,15348,0.069,551
2019-10-05T11:15:47,42.805,6.029,CST-1368DR,7680,10756,15349,0.069,551
2019-10-05T11:18:49,42.805,6.029,CST-1368DR,7680,10756,15350,0.069,551
2019-10-05T11:21:51,42.805,6.029,CST-1368DR,7680,10757,15351,0.068,551
2019-10-05T11:24:52,42.805,6.029,CST-1368DR,7680,10757,15350,0.069,551
2019-10-05T11:27:54,42.805,6.029,CST-1368DR,7680,10755,15348,0.069,551
2019-10-05T11:30:56,42.805,6.029,CST-1368DR,7680,10756,15349,0.069,551
2019-10-05T11:33:57,42.805,6.029,CST-1368DR,7680,10757,15351,0.068,551
2019-10-05T11:36:59,42.805,6.029,CST-1368DR,7680,10756,15350,0.069,551
2019-10-05T11:40:01,42.805,6.029,CST-1368DR,7680,10756,15349,0.069,551
2019-10-05T11:43:02,42.805,6.029,CST-1368DR,7680,10755,15349,0.069,551
2019-10-05T11:46:04,42.805,6.029,CST-1368DR,7680,10755,15348,0.069,551
2019-10-05T11:49:06,42.805,6.029,CST-1368DR,7680,10755,15349,0.069,551
2019-10-05T11:52:07,42.805,6.029,CST-1368DR,7680,10753,15345,0.070,551
2019-10-05T11:55:09,42.805,6.029,CST-1368DR,7680,10754,15347,0.070,551
2019-10-05T11:58:11,42.805,6.029,CST-1368DR,7680,10755,15349,0.069,551
2019-10-05T12:01:12,42.805,6.029,CST-1368DR,7680,10756,15349,0.069,551
2019-10-05T12:04:14,42.805,6.029,CST-1368DR,7680,10757,15351,0.068,551
2019-10-05T12:07:16,42.805,6.029,CST-1368DR,7680,10757,15350,0.069,551
2019-10-05T12:10:17,42.805,6.029,CST-1368DR,7680,10755,15348,0.069,551
2019-10-05T12:13:19,42.805,6.029,CST-1368DR,7680,10753,15346,0.070,551
2019-10-05T12:16:20,42.805,6.029,CST-1368DR,7680,10755,15348,0.069,551
2019-10-05T12:19:22,42.805,6.029,CST-1368DR,7680,10753,15345,0.070,551
2019-10-05T12:22:24,42.805,6.029,CST-1368DR,7680,10756,15350,0.069,551
2019-10-05T12:25:25,42.805,6.029,CST-1368DR,7680,10755,15348,0.069,551
2019-10-05T12:28:27,42.805,6.029,CST-1368DR,7680,10756,15350,0.069,551
2019-10-05T12:31:29,42.805,6.029,CST-1368DR,7680,10755,15348,0.069,551
2019-10-05T12:34:30,42.805,6.029,CST-1368DR,7680,10754,15347,0.070,551
2019-10-05T12:37:32,42.805,6.029,CST-1368DR,7680,10731,15313,0.078,551
2019-10-05T12:40:34,42.805,6.029,CST-1368DR,7680,10755,15348,0.069,551
2019-10-05T12:43:35,42.805,6.029,CST-1368DR,7680,10756,15349,0.069,551
2019-10-05T12:46:37,42.805,6.029,CST-1368DR,7680,10755,15349,0.069,551
2019-10-05T12:49:38,42.805,6.029,CST-1368DR,7680,10757,15351,0.068,551
2019-10-05T12:52:40,42.805,6.029,CST-1368DR,7680,10756,15350,0.069,550
2019-10-05T12:55:42,42.805,6.029,CST-1368DR,7680,10757,15350,0.069,551
2019-10-05T12:58:43,42.805,6.029,CST-1368DR,7680,10756,15349,0.069,551
2019-10-05T13:01:45,42.805,6.029,CST-1368DR,7680,10754,15347,0.070,551
2019-10-05T13:04:47,42.805,6.029,CST-1368DR,7680,10755,15348,0.069,551
2019-10-05T13:07:48,42.805,6.029,CST-1368DR,7680,10755,15349,0.069,550
2019-10-05T13:10:50,42.805,6.029,CST-1368DR,7680,10755,15348,0.069,550
2019-10-05T13:13:52,42.805,6.029,CST-1368DR,7680,10754,15347,0.070,551
2019-10-05T13:16:53,42.805,6.029,CST-1368DR,7680,10756,15350,0.069,551
2019-10-05T13:19:55,42.805,6.029,CST-1368DR,7680,10754,15347,0.070,551
2019-10-05T13:22:57,42.805,6.029,CST-1368DR,7680,10755,15348,0.069,551
2019-10-05T13:25:58,42.805,6.029,CST-1368DR,7680,10756,15349,0.069,551
2019-10-05T13:29:00,42.805,6.029,CST-1368DR,7680,10755,15349,0.069,551
2019-10-05T13:32:02,42.805,6.029,CST-1368DR,7679,10750,15343,0.071,551
2019-10-05T13:35:03,42.805,6.029,CST-1368DR,7679,10754,15349,0.069,551
2019-10-05T13:38:05,42.805,6.029,CST-1368DR,7680,10754,15347,0.070,551
2019-10-05T13:41:07,42.805,6.029,CST-1368DR,7680,10756,15350,0.069,551
2019-10-05T13:44:08,42.805,6.029,CST-1368DR,7679,10756,15352,0.068,551
2019-10-05T13:47:10,42.805,6.029,CST-1368DR,7679,10755,15349,0.069,551
2019-10-05T13:50:12,42.805,6.029,CST-1368DR,7679,10754,15348,0.069,551
2019-10-05T13:53:13,42.805,6.029,CST-1368DR,7679,10755,15350,0.069,551
2019-10-05T13:56:15,42.805,6.029,CST-1368DR,7679,10755,15350,0.069,550
2019-10-05T13:59:17,42.805,6.029,CST-1368DR,7679,10755,15350,0.069,551
2019-10-05T14:02:18,42.805,6.029,CST-1368DR,7679,10755,15350,0.069,551
2019-10-05T14:05:20,42.805,6.029,CST-1368DR,7679,10755,15350,0.069,551
2019-10-05T14:08:22,42.805,6.029,CST-1368DR,7679,10756,15352,0.068,551
2019-10-05T14:11:23,42.805,6.029,CST-1368DR,7679,10755,15350,0.069,551
2019-10-05T14:14:25,42.805,6.029,CST-1368DR,7679,10755,15349,0.069,551
2019-10-05T14:17:27,42.805,6.029,CST-1368DR,7677,10503,14994,0.163,551
2019-10-05T14:20:28,42.805,6.029,CST-1368DR,7679,10754,15349,0.069,551
2019-10-05T14:23:30,42.805,6.029,CST-1368DR,7679,10754,15349,0.069,551
2019-10-05T14:26:32,42.805,6.029,CST-1368DR,7679,10754,15349,0.069,551
2019-10-05T14:29:33,42.805,6.029,CST-1368DR,7679,10754,15349,0.069,551
2019-10-05T14:32:35,42.805,6.029,CST-1368DR,7679,10753,15348,0.069,551
2019-10-05T14:35:37,42.805,6.029,CST-1368DR,7679,10753,15347,0.070,551
2019-10-05T14:38:38,42.805,6.029,CST-1368DR,7679,10754,15349,0.069,551
2019-10-05T14:41:40,42.805,6.029,CST-1368DR,7679,10754,15349,0.069,551
2019-10-05T14:44:42,42.805,6.029,CST-1368DR,7679,10751,15344,0.070,551
2019-10-05T14:47:43,42.805,6.029,CST-1368DR,7679,10755,15350,0.069,551
2019-10-05T14:50:45,42.805,6.029,CST-1368DR,7679,10754,15348,0.069,551
2019-10-05T14:53:47,42.805,6.029,CST-1368DR,7679,10754,15349,0.069,551
2019-10-05T14:56:48,42.805,6.029,CST-1368DR,7679,10753,15347,0.070,551
2019-10-05T14:59:50,42.805,6.029,CST-1368DR,7679,10754,15349,0.069,551
2019-10-05T15:02:52,42.805,6.029,CST-1368DR,7679,10753,15347,0.070,551
2019-10-05T15:05:53,42.805,6.029,CST-1368DR,7679,10755,15349,0.069,551
2019-10-05T15:08:55,42.805,6.029,CST-1368DR,7679,10754,15348,0.069,551
2019-10-05T15:11:56,42.805,6.029,CST-1368DR,7679,10752,15345,0.070,550
2019-10-05T15:14:58,42.805,6.029,CST-1368DR,7679,10753,15347,0.070,551
2019-10-05T15:18:00,42.805,6.029,CST-1368DR,7679,10755,15350,0.069,551
2019-10-05T15:21:01,42.805,6.029,CST-1368DR,7679,10754,15349,0.069,551
2019-10-05T15:24:03,42.805,6.029,CST-1368DR,7679,10753,15347,0.070,551
2019-10-05T15:27:05,42.805,6.029,CST-1368DR,7679,10754,15349,0.069,551
2019-10-05T15:30:06,42.805,6.029,CST-1368DR,7679,10753,15348,0.069,551
2019-10-05T15:33:08,42.805,6.029,CST-1368DR,7679,10755,15349,0.069,551
2019-10-05T15:36:10,42.805,6.029,CST-1368DR,7679,10752,15346,0.070,551
2019-10-05T15:39:11,42.805,6.029,CST-1368DR,7679,10753,15348,0.069,551
2019-10-05T15:42:13,42.805,6.029,CST-1368DR,7679,10753,15347,0.070,551
2019-10-05T15:45:14,42.805,6.029,CST-1368DR,7678,10753,15349,0.069,551
2019-10-05T15:48:16,42.805,6.029,CST-1368DR,7678,10754,15350,0.069,550
2019-10-05T15:51:18,42.805,6.029,CST-1368DR,7678,10754,15350,0.069,551
2019-10-05T15:54:19,42.805,6.029,CST-1368DR,7678,10754,15350,0.069,551
2019-10-05T15:57:21,42.805,6.029,CST-1368DR,7678,10753,15349,0.069,551
2019-10-05T16:00:23,42.805,6.029,CST-1368DR,7679,10754,15348,0.069,550
2019-10-05T16:03:24,42.805,6.029,CST-1368DR,7679,10753,15348,0.069,550
2019-10-05T16:06:26,42.805,6.029,CST-1368DR,7678,10754,15350,0.069,551
2019-10-05T16:09:28,42.805,6.029,CST-1368DR,7678,10750,15345,0.070,551
2019-10-05T16:12:29,42.805,6.029,CST-1368DR,7678,10753,15349,0.069,551
2019-10-05T16:15:31,42.805,6.029,CST-1368DR,7678,10753,15349,0.069,551
2019-10-05T16:18:33,42.805,6.029,CST-1368DR,7678,10754,15350,0.069,551
2019-10-05T16:21:34,42.805,6.029,CST-1368DR,7678,10753,15349,0.069,551
2019-10-05T16:24:36,42.805,6.029,CST-1368DR,7678,10753,15349,0.069,551
2019-10-05T16:27:38,42.805,6.029,CST-1368DR,7678,10753,15349,0.069,551
2019-10-05T16:30:39,42.805,6.029,CST-1368DR,7678,10754,15351,0.068,551
2019-10-05T16:33:41,42.805,6.029,CST-1368DR,7678,10754,15351,0.068,551
2019-10-05T16:36:43,42.805,6.029,CST-1368DR,7678,10753,15349,0.069,551